Weather History for Eau Claire, WI

Change the Weather History Date:

Tuesday, May 28, 2013

  Actual Average Record
Temperature  
Mean Temperature 56 °F 61 °F  
Max Temperature 59 °F 73 °F 95 °F (2006)
Min Temperature 52 °F 49 °F 33 °F (1906)
Degree Days  
Heating Degree Days 9 5  
Month to date heating degree days 308 242  
Since 1 July heating degree days 8237 7883  
Cooling Degree Days 0 1  
Month to date cooling degree days 17 22  
Year to date cooling degree days 20 26  
Growing Degree Days 4 (Base 50)    
Moisture  
Dew Point 54 °F    
Average Humidity 97    
Maximum Humidity 100    
Minimum Humidity 93    
Precipitation  
Precipitation 0.09 in 0.12 in 2.40 in (1941)
Month to date precipitation 6.42 3.10  
Year to date precipitation 17.19 9.28  
Snow  
Snow 0.00 in 0.00 in 0.00 in ()
Month to date snowfall 9.3 0.2  
Since 1 July snowfall 84.3 47.0  
Snow Depth 0.00 in    
Sea Level Pressure  
Sea Level Pressure 29.77 in    
Wind  
Wind Speed 5 mph (East)    
Max Wind Speed 12 mph    
Max Gust Speed 14 mph    
Visibility 8 miles    
Events Rain    
T = Trace of Precipitation, MM = Missing Value Source: NWS Daily Summary

Daily Weather History Graph

Daily Weather History Graph

Search for Another Location

Airport:

Trip Planner

Search our weather history database for the weather conditions in past years. The results will help you decide how hot, cold, wet, or windy it might be!

Date:

Astronomy

May. 28, 2013 Rise Set
Actual Time 5:25 AM CDT 8:41 PM CDT
Civil Twilight 4:49 AM CDT 9:17 PM CDT
Nautical Twilight 4:03 AM CDT 10:04 PM CDT
Astronomical Twilight 3:05 AM CDT 11:02 PM CDT
Moon 11:59 PM CDT (5/28) 9:18 AM CDT (5/28)
Length of Visible Light 16h 28m
Length of Day
15h 16m
Waning Gibbous, 82% of the Moon is Illuminated
May 28
Waning Gibbous
May 31
Last Quarter
Jun 8
New
Jun 16
First Quarter
Jun 23
Full

Hourly Weather History & Observations

Time (CDT) Temp. Dew Point Humidity Pressure Visibility Wind Dir Wind Speed Gust Speed Precip Events Conditions
12:56 AM 53.1 °F 51.1 °F 93% 29.86 in 10.0 mi ESE 8.1 mph - N/A   Overcast
1:56 AM 53.1 °F 51.1 °F 93% 29.83 in 10.0 mi East 6.9 mph - 0.00 in   Overcast
2:56 AM 52.0 °F 51.1 °F 97% 29.80 in 10.0 mi ENE 5.8 mph - N/A   Overcast
3:56 AM 52.0 °F 51.1 °F 97% 29.80 in 4.0 mi ENE 5.8 mph - 0.00 in Rain Light Rain
4:56 AM 52.0 °F 51.1 °F 97% 29.79 in 5.0 mi ENE 5.8 mph - 0.02 in Rain Light Rain
5:56 AM 52.0 °F 52.0 °F 100% 29.78 in 3.0 mi East 5.8 mph - 0.00 in Rain Light Rain
6:04 AM 51.8 °F 51.8 °F 100% 29.77 in 1.8 mi East 5.8 mph - 0.01 in Rain Light Rain
6:19 AM 51.8 °F 51.8 °F 100% 29.77 in 2.0 mi East 5.8 mph - 0.01 in   Overcast
6:47 AM 53.6 °F 51.8 °F 94% 29.77 in 4.0 mi East 4.6 mph - 0.02 in Rain Light Rain
6:56 AM 53.1 °F 52.0 °F 96% 29.78 in 6.0 mi East 5.8 mph - 0.02 in   Overcast
7:56 AM 53.1 °F 52.0 °F 96% 29.75 in 10.0 mi ENE 6.9 mph - N/A   Overcast
8:56 AM 54.0 °F 52.0 °F 93% 29.75 in 10.0 mi East 11.5 mph - 0.00 in   Overcast
9:56 AM 54.0 °F 53.1 °F 97% 29.75 in 10.0 mi East 9.2 mph - 0.00 in   Overcast
10:56 AM 54.0 °F 53.1 °F 97% 29.76 in 8.0 mi ESE 5.8 mph - 0.00 in   Overcast
11:56 AM 55.0 °F 54.0 °F 96% 29.75 in 9.0 mi ESE 3.5 mph - 0.04 in   Overcast
12:56 PM 57.0 °F 55.0 °F 93% 29.74 in 10.0 mi East 5.8 mph - 0.00 in   Overcast
1:56 PM 57.9 °F 55.0 °F 90% 29.73 in 10.0 mi ENE 8.1 mph - N/A   Overcast
2:56 PM 57.9 °F 55.0 °F 90% 29.75 in 10.0 mi ENE 5.8 mph - N/A   Overcast
3:56 PM 57.0 °F 55.9 °F 96% 29.75 in 5.0 mi SE 4.6 mph - 0.00 in   Overcast
4:56 PM 57.0 °F 55.9 °F 96% 29.75 in 6.0 mi SSE 3.5 mph - N/A   Overcast
5:56 PM 57.9 °F 55.9 °F 93% 29.75 in 10.0 mi East 5.8 mph - 0.00 in   Overcast
6:56 PM 57.9 °F 55.9 °F 93% 29.76 in 10.0 mi Calm Calm - N/A   Overcast
7:09 PM 57.2 °F 55.4 °F 94% 29.76 in 10.0 mi South 3.5 mph - N/A   Overcast
7:56 PM 57.9 °F 55.9 °F 93% 29.74 in 10.0 mi Calm Calm - N/A   Overcast
8:56 PM 57.9 °F 55.9 °F 93% 29.71 in 10.0 mi WNW 3.5 mph - N/A   Overcast
9:56 PM 57.9 °F 55.9 °F 93% 29.76 in 10.0 mi Calm Calm - N/A   Overcast
10:56 PM 57.9 °F 55.9 °F 93% 29.78 in 10.0 mi Calm Calm - N/A   Overcast
11:56 PM 57.0 °F 55.9 °F 96% 29.79 in 6.0 mi Calm Calm - N/A   Overcast